Wind_Speed
5 5 5 5 5 5 5 5 5 5 6 6 7 7 7 7 7 8 8 9 8 8 7 7 7 7 8 9 9 10 10 10 11 12 13 13 14 14 15 15 15 16 16
6 6 6 6 6 5 5 5 5 5 5 6 6 7 8 7 8 8 9 9 9 8 7 7 7 8 9 9 10 10 11 11 11 11 12 13 14 15 15 15 16 16 16
6 6 6 6 6 6 6 6 6 6 6 6 6 7 7 7 8 9 9 9 9 9 8 8 9 9 9 9 10 10 10 11 12 12 13 14 15 15 15 15 16 16 16
7 7 7 7 7 6 6 6 6 6 6 7 7 7 8 8 8 8 9 9 9 9 9 8 8 8 9 10 10 10 11 11 12 13 13 14 14 15 15 15 15 16 16
8 8 8 7 7 7 7 7 6 7 7 7 7 7 8 8 8 8 9 9 9 9 9 9 9 9 9 10 10 11 11 12 13 13 14 14 14 15 15 15 16 16 16
8 8 8 8 7 7 7 7 8 8 8 8 7 7 8 8 8 9 9 10 10 9 9 9 9 10 10 10 11 11 12 13 13 13 13 14 15 15 15 16 16 17 17
8 8 8 7 7 7 7 8 8 8 9 8 7 8 8 8 9 9 10 10 10 10 10 10 10 10 11 10 11 12 12 12 12 12 12 13 14 14 15 16 17 17 18
9 9 8 8 8 8 8 9 9 9 9 9 9 9 9 9 9 9 10 10 10 10 10 10 10 11 11 11 11 12 12 12 12 12 12 12 13 14 15 16 17 18 18
8 8 8 9 9 9 9 9 9 10 10 10 10 10 10 9 9 9 10 10 10 11 11 11 11 11 11 12 12 12 13 13 13 13 13 13 13 14 15 16 17 18 19
8 9 9 9 9 9 9 9 10 10 10 11 11 11 11 10 10 10 10 11 11 11 12 12 13 13 13 13 13 13 13 14 14 14 14 14 15 15 16 16 17 18 19
9 9 10 10 10 10 10 10 10 11 11 12 12 12 11 11 11 11 11 11 11 11 12 12 13 13 13 14 14 14 14 14 14 15 15 15 15 16 16 17 18 19 19
9 9 10 10 10 10 10 10 10 11 12 12 12 12 12 12 12 12 12 12 12 12 13 13 13 14 14 14 14 14 15 15 15 15 15 16 16 17 18 18 19 20 21
10 10 10 11 11 11 11 11 12 12 12 12 11 12 12 13 13 14 13 13 13 13 14 14 14 15 15 15 15 15 15 15 15 16 17 17 18 18 19 20 20 21 21
11 11 11 11 12 12 13 13 13 13 13 13 13 13 13 14 14 14 14 14 14 14 15 15 15 16 16 16 16 16 16 16 17 17 18 18 19 20 21 21 22 22 22
12 11 12 12 12 13 13 13 13 14 14 14 14 14 14 15 15 15 15 15 15 15 16 17 17 17 17 17 17 18 18 18 19 19 19 20 20 21 21 21 22 22 23
12 12 12 12 13 13 13 13 14 14 14 14 14 15 15 15 15 15 15 16 16 17 17 18 18 19 19 19 19 20 20 20 21 21 21 21 22 22 22 21 22 22 23
13 13 13 13 13 13 14 14 14 13 13 13 14 14 15 15 16 16 16 16 17 18 18 19 19 20 20 21 21 22 22 22 22 22 22 23 23 23 22 22 23 23 24
13 13 13 14 14 14 14 13 14 14 14 14 14 14 15 16 17 17 17 17 17 18 18 19 19 20 21 21 22 23 23 23 23 23 23 24 24 24 23 23 24 24 25
14 14 14 15 15 14 14 14 15 15 15 15 15 16 16 16 17 17 17 17 18 18 19 20 21 22 22 22 22 23 23 23 24 24 24 25 25 26 26 25 25 26 26
15 15 15 16 15 15 15 15 15 16 16 16 17 17 17 17 17 17 18 19 19 20 21 22 23 23 23 23 23 23 24 24 25 25 26 26 26 27 27 27 28 28 28
17 17 17 16 16 16 16 16 16 16 17 17 18 18 18 18 18 18 19 20 20 21 22 23 24 24 24 24 25 25 26 26 27 27 28 28 29 29 29 30 30 30 31
17 17 18 17 17 17 18 18 18 19 19 19 20 19 19 19 19 20 21 21 22 23 24 24 25 25 25 26 27 27 28 28 29 29 30 30 31 31 31 32 32 32 33
19 19 19 19 20 20 20 20 20 21 21 21 21 20 21 21 22 22 23 23 24 25 26 26 26 26 27 27 28 29 29 30 30 31 31 31 32 32 33 34 34 35 35
19 20 20 21 21 21 21 22 22 22 22 22 23 22 22 23 24 25 25 26 26 27 27 28 28 29 29 29 29 30 30 31 31 32 32 32 32 33 34 35 36 36 36
21 21 21 22 22 22 23 23 23 23 23 23 23 23 24 25 25 26 27 27 27 28 28 28 29 29 30 30 31 31 31 32 32 32 32 33 33 34 34 36 37 37 37
22 22 22 22 23 23 23 23 23 24 24 24 24 24 25 26 27 27 28 27 28 28 29 29 30 31 31 31 32 32 33 33 32 32 33 34 34 35 35 35 36 37 37
Wind_Direction
277 271 272 276 279 283 283 282 281 277 274 276 277 274 271 268 271 268 268 269 267 266 265 269 269 269 274 274 270 272 271 267 267 262 258 257 255 254 256 256 255 255 255
274 274 270 272 278 282 285 282 278 273 276 278 279 277 273 271 270 270 268 269 265 265 269 273 275 274 273 275 272 270 267 267 266 266 264 260 258 256 256 255 257 255 254
271 272 271 273 275 279 284 283 280 270 270 276 279 279 277 274 273 270 269 270 267 266 268 268 272 275 271 274 272 270 268 266 268 267 264 261 258 257 256 256 255 256 255
269 271 274 273 275 276 278 279 279 277 276 280 282 282 278 278 278 273 271 272 273 271 270 270 272 273 269 272 272 271 270 270 270 269 268 265 260 258 256 258 258 258 256
270 272 274 271 269 269 270 272 276 279 282 285 286 284 281 281 278 275 271 271 274 274 273 275 275 276 276 274 274 272 271 270 270 270 270 268 262 258 257 258 259 261 261
270 273 273 270 267 265 267 269 275 278 281 283 287 290 288 282 277 275 274 272 274 273 274 275 276 277 277 276 275 274 272 271 271 270 271 267 262 258 257 257 258 261 263
271 272 270 269 266 266 267 269 274 277 277 276 280 287 290 288 282 279 277 274 273 272 275 276 276 276 277 275 275 276 275 272 271 272 272 268 263 261 261 260 259 262 263
271 270 269 269 267 267 269 269 272 277 278 279 281 287 291 292 288 284 282 279 280 279 278 280 279 277 277 278 279 279 277 276 277 278 275 271 267 264 264 263 262 263 265
271 270 267 267 266 267 269 270 272 275 277 279 280 283 287 288 286 284 283 281 281 281 281 282 282 282 281 282 283 281 278 279 280 280 278 276 273 270 269 267 266 265 265
271 268 265 268 268 268 270 272 274 276 279 281 283 283 283 282 281 281 281 283 281 281 281 282 282 281 282 282 281 280 280 279 279 280 279 279 277 276 275 273 270 268 267
269 269 267 266 265 265 268 273 276 276 279 281 280 280 279 278 277 278 281 282 284 284 285 284 282 281 282 283 283 281 281 281 280 279 279 279 278 277 277 276 274 271 270
268 267 269 267 266 265 268 271 274 277 278 281 279 276 276 277 276 278 280 281 281 283 286 285 284 282 284 285 285 283 282 282 281 280 279 279 279 279 278 277 275 273 271
265 266 268 268 267 267 269 271 272 275 278 281 280 281 280 279 280 280 280 280 282 284 285 284 284 283 282 283 283 283 282 281 280 281 282 281 279 279 278 277 276 274 272
267 269 270 269 270 270 272 273 273 273 277 281 283 283 280 278 279 280 280 280 282 283 283 283 284 284 282 281 282 281 279 279 280 282 283 283 282 280 279 277 276 274 272
270 271 271 271 273 274 274 275 277 278 278 280 280 280 280 279 279 279 282 283 284 283 283 282 283 283 282 282 282 282 281 281 280 281 283 283 284 283 281 279 277 275 274
270 270 271 273 275 275 275 277 279 280 279 280 280 279 279 280 282 282 283 284 285 285 284 284 281 280 281 281 282 282 283 282 281 282 282 282 282 283 282 280 278 276 275
269 269 271 275 277 277 277 277 277 277 279 282 280 280 281 281 283 283 282 284 286 286 286 285 282 282 282 281 280 281 282 282 281 281 281 281 282 282 281 280 279 277 276
271 272 272 274 277 278 278 278 280 280 282 283 285 285 283 282 283 283 283 284 285 286 286 286 285 285 284 282 281 281 282 281 281 281 281 281 281 281 281 281 279 278 277
273 274 273 275 276 277 278 279 279 280 281 282 283 286 285 286 285 284 284 284 284 285 286 286 287 286 285 284 283 283 282 282 281 281 281 281 280 279 279 279 279 280 280
273 274 274 275 275 277 278 279 280 280 281 282 282 283 283 283 282 283 284 284 284 286 286 287 286 286 286 286 285 285 284 283 282 282 281 281 281 280 280 280 280 281 282
272 274 274 274 275 277 279 280 280 281 282 283 283 282 281 281 281 283 285 286 287 288 287 287 288 287 287 287 287 287 287 286 285 283 282 281 281 281 281 280 281 282 282
274 275 275 275 278 279 280 280 280 281 282 283 282 281 281 281 282 284 285 287 289 290 290 290 290 289 289 289 289 288 287 286 286 284 283 282 281 280 280 280 281 281 282
277 277 276 276 277 278 278 278 279 280 282 282 282 281 282 282 282 284 286 288 290 292 291 291 290 290 289 290 290 289 288 287 286 286 284 283 282 281 281 282 282 282 283
278 278 277 278 278 278 278 279 279 280 281 282 282 283 284 284 284 286 287 288 289 291 291 292 291 291 290 290 289 289 289 289 288 286 285 285 283 282 283 283 283 284 284
279 280 279 278 278 279 279 279 280 281 282 280 281 283 284 283 284 285 287 288 289 289 290 291 291 291 291 290 289 289 289 289 288 287 286 286 285 284 284 284 284 284 284
277 279 280 279 280 280 280 280 280 281 281 281 282 283 285 286 286 287 288 288 289 289 289 290 290 290 290 290 290 289 289 289 288 287 287 288 288 286 285 284 285 285 285
Height
5877 5877 5877 5876 5876 5875 5874 5874 5873 5873 5872 5872 5871 5871 5870 5870 5869 5869 5868 5868 5868 5867 5867 5866 5866 5865 5865 5864 5864 5863 5863 5862 5862 5862 5862 5862 5862 5862 5863 5863 5864 5864 5865
5876 5876 5875 5875 5874 5874 5873 5873 5872 5871 5871 5870 5870 5869 5869 5868 5868 5867 5867 5866 5866 5865 5865 5864 5864 5863 5863 5862 5861 5861 5860 5860 5860 5859 5859 5859 5859 5859 5860 5860 5861 5861 5862
5874 5874 5874 5873 5873 5872 5872 5871 5870 5870 5869 5869 5869 5868 5867 5866 5866 5865 5865 5864 5864 5863 5863 5862 5862 5861 5860 5860 5859 5858 5858 5857 5857 5856 5856 5855 5855 5856 5856 5856 5857 5858 5858
5873 5872 5872 5872 5871 5871 5870 5870 5869 5868 5868 5867 5867 5866 5865 5865 5864 5863 5863 5862 5862 5861 5861 5860 5860 5859 5858 5857 5856 5856 5855 5855 5854 5853 5852 5851 5851 5851 5852 5853 5854 5854 5855
5871 5871 5870 5870 5869 5869 5868 5868 5868 5867 5866 5866 5865 5864 5864 5863 5862 5862 5861 5861 5860 5859 5859 5858 5857 5857 5856 5855 5854 5853 5853 5852 5851 5850 5848 5847 5846 5846 5848 5849 5850 5851 5851
5869 5868 5868 5867 5867 5867 5867 5866 5866 5865 5865 5864 5863 5863 5862 5861 5860 5860 5859 5859 5858 5857 5857 5856 5855 5854 5854 5853 5852 5851 5850 5849 5848 5847 5845 5843 5842 5843 5844 5846 5847 5847 5848
5867 5866 5866 5865 5865 5865 5865 5864 5864 5863 5863 5862 5862 5861 5860 5859 5858 5858 5857 5857 5856 5855 5854 5854 5853 5852 5851 5850 5850 5849 5848 5847 5846 5844 5842 5841 5840 5840 5841 5842 5843 5844 5844
5864 5864 5864 5863 5863 5863 5862 5862 5862 5861 5861 5860 5860 5859 5858 5858 5856 5855 5855 5854 5853 5853 5852 5851 5850 5850 5849 5848 5847 5846 5845 5844 5843 5841 5840 5839 5838 5838 5838 5839 5839 5840 5840
5862 5862 5862 5861 5861 5861 5860 5860 5859 5859 5858 5858 5857 5857 5856 5855 5854 5854 5852 5852 5851 5850 5850 5849 5848 5847 5846 5845 5844 5843 5842 5841 5840 5839 5838 5837 5836 5836 5835 5835 5835 5835 5835
5860 5859 5859 5859 5859 5858 5858 5857 5857 5856 5856 5855 5854 5854 5853 5852 5852 5851 5850 5849 5848 5848 5847 5846 5845 5844 5843 5842 5841 5840 5839 5838 5837 5836 5835 5834 5833 5832 5832 5831 5831 5831 5831
5857 5857 5857 5856 5856 5856 5855 5855 5854 5854 5853 5853 5852 5851 5850 5850 5849 5848 5848 5847 5846 5845 5844 5843 5842 5841 5840 5839 5838 5837 5836 5835 5834 5833 5832 5831 5830 5829 5828 5827 5827 5826 5826
5855 5855 5854 5854 5854 5853 5853 5852 5852 5851 5850 5850 5849 5848 5847 5847 5846 5845 5844 5844 5843 5842 5841 5840 5839 5838 5837 5836 5835 5833 5833 5831 5830 5829 5828 5827 5826 5825 5824 5823 5822 5821 5821
5852 5852 5851 5851 5851 5850 5850 5850 5849 5848 5847 5847 5845 5845 5844 5843 5843 5842 5841 5840 5839 5838 5837 5836 5835 5834 5833 5832 5831 5829 5828 5827 5826 5825 5824 5823 5822 5820 5819 5818 5817 5816 5815
5849 5849 5849 5848 5848 5847 5847 5846 5845 5845 5844 5843 5842 5841 5840 5840 5839 5838 5837 5836 5836 5835 5834 5832 5831 5830 5828 5827 5826 5825 5824 5823 5822 5820 5819 5818 5817 5815 5814 5813 5812 5811 5810
5846 5846 5846 5845 5844 5844 5843 5843 5842 5841 5840 5839 5839 5838 5837 5836 5835 5834 5833 5832 5832 5831 5830 5828 5827 5825 5824 5823 5822 5820 5819 5818 5816 5815 5814 5812 5811 5810 5808 5807 5806 5805 5804
5843 5843 5842 5842 5841 5840 5839 5839 5838 5837 5836 5835 5834 5834 5833 5832 5831 5830 5829 5828 5827 5826 5825 5823 5822 5820 5819 5818 5817 5815 5814 5812 5811 5809 5808 5806 5805 5804 5802 5801 5800 5799 5798
5839 5839 5838 5838 5837 5836 5836 5835 5834 5833 5832 5831 5830 5829 5828 5827 5826 5825 5824 5823 5822 5820 5819 5818 5816 5815 5814 5812 5811 5809 5808 5806 5805 5803 5802 5800 5798 5797 5796 5795 5793 5792 5791
5836 5835 5835 5834 5833 5832 5832 5831 5830 5829 5828 5827 5826 5825 5824 5822 5821 5820 5819 5818 5817 5815 5814 5812 5811 5809 5808 5806 5805 5803 5801 5800 5798 5797 5795 5793 5792 5790 5789 5788 5786 5785 5784
5832 5831 5831 5830 5829 5828 5828 5827 5826 5825 5824 5823 5821 5820 5819 5818 5816 5815 5814 5812 5811 5810 5809 5807 5805 5803 5802 5800 5798 5796 5795 5793 5791 5789 5788 5786 5785 5783 5781 5780 5779 5778 5776
5828 5827 5826 5825 5824 5824 5823 5822 5821 5820 5819 5818 5816 5815 5814 5813 5812 5810 5809 5807 5806 5804 5803 5801 5799 5797 5795 5793 5791 5789 5787 5785 5784 5782 5780 5778 5776 5775 5773 5772 5771 5769 5768
5823 5822 5821 5820 5820 5819 5818 5817 5816 5815 5814 5812 5811 5810 5809 5807 5806 5805 5803 5802 5800 5798 5796 5794 5792 5790 5788 5786 5783 5781 5779 5777 5775 5773 5771 5769 5768 5766 5765 5763 5762 5760 5758
5818 5817 5816 5815 5814 5814 5813 5812 5811 5809 5808 5807 5805 5804 5803 5801 5800 5799 5797 5795 5794 5791 5789 5787 5784 5782 5780 5778 5775 5773 5771 5769 5767 5765 5762 5761 5758 5757 5755 5754 5752 5750 5749
5812 5811 5810 5810 5809 5808 5807 5806 5805 5803 5802 5800 5799 5798 5796 5795 5794 5792 5790 5788 5786 5784 5782 5779 5777 5774 5772 5770 5767 5765 5762 5759 5757 5755 5752 5751 5749 5747 5745 5743 5742 5740 5738
5806 5805 5804 5803 5802 5801 5800 5799 5798 5797 5795 5794 5792 5791 5789 5788 5786 5784 5782 5780 5778 5775 5773 5771 5768 5765 5763 5760 5758 5755 5752 5750 5747 5744 5742 5740 5738 5736 5734 5732 5730 5729 5727
5800 5799 5798 5797 5796 5795 5793 5792 5790 5789 5788 5786 5785 5783 5781 5780 5778 5776 5774 5772 5769 5767 5764 5761 5759 5756 5753 5751 5748 5745 5743 5740 5737 5735 5732 5729 5727 5725 5724 5721 5719 5717 5715
5793 5792 5791 5790 5789 5787 5786 5785 5783 5782 5780 5779 5777 5775 5773 5771 5769 5767 5765 5763 5760 5758 5755 5753 5750 5747 5743 5740 5738 5735 5732 5729 5727 5724 5722 5719 5717 5714 5713 5710 5708 5705 5703